Vigo, Spain

4:09 PM CET on March 23, 2017 (GMT +0100)
Vigo

Weather History for LEVX - March, 2013

Change the Weather History Date:

Sunday, March 24, 2013

  Actual Average Record
Temperature  
Mean Temperature 50 °F -  
Max Temperature 55 °F 60 °F 77 °F (1998)
Min Temperature 46 °F 45 °F 37 °F (2008)
Degree Days  
Heating Degree Days 14    
Moisture  
Dew Point 46 °F    
Average Humidity 93    
Maximum Humidity 100    
Minimum Humidity 74    
Precipitation  
Precipitation 0.16 in 0.21 in - ()
Sea Level Pressure  
Sea Level Pressure 29.65 in    
Wind  
Wind Speed 8 mph ()    
Max Wind Speed 14 mph    
Max Gust Speed 24 mph    
Visibility 4.7 miles    
Events Fog , Rain    
Averages and records for this station are not official NWS values.
T = Trace of Precipitation, MM = Missing Value Source: Averaged Metar Reports

Daily Weather History Graph

Daily Weather History Graph

Search for Another Location

Airport or City:

Trip Planner

Search our weather history database for the weather conditions in past years. The results will help you decide how hot, cold, wet, or windy it might be!

Date:

Astronomy

Mar. 24, 2013 Rise Set
Actual Time 7:30 AM CET 7:51 PM CET
Civil Twilight 7:02 AM CET 8:19 PM CET
Nautical Twilight 6:29 AM CET 8:52 PM CET
Astronomical Twilight 5:56 AM CET 9:26 PM CET
Moon 5:03 PM CET (3/24) 5:36 AM CET (3/24)
Length of Visible Light 13h 16m
Length of Day
12h 20m
Waxing Gibbous, 90% of the Moon is Illuminated
Mar 24
Waxing Gibbous
Mar 27
Full
Apr 3
Last Quarter
Apr 10
New
Apr 18
First Quarter

Hourly Weather History & Observations

Time (CET) Temp. Windchill Dew Point Humidity Pressure Visibility Wind Dir Wind Speed Gust Speed Precip Events Conditions
12:00 AM 46.4 °F 42.9 °F 46.4 °F 100% 29.53 in 3.7 mi South 6.9 mph - N/A Rain Light Rain Showers
12:30 AM 46.4 °F 41.9 °F 46.4 °F 100% 29.53 in 3.7 mi SSW 9.2 mph - N/A Rain Light Rain
1:00 AM 48 °F - 47 °F 97% 29.54 in 4 mi SSW 8.1 mph - - Rain Light Rain
1:00 AM 46.4 °F 42.4 °F 46.4 °F 100% 29.50 in 3.7 mi SSW 8.1 mph - N/A Rain Light Rain
1:16 AM 46.4 °F 41.9 °F 46.4 °F 100% 29.53 in 2.5 mi SSW 9.2 mph - N/A Rain Rain Showers
1:30 AM 46.4 °F 41.1 °F 46.4 °F 100% 29.53 in 1.9 mi SSW 11.5 mph - N/A Rain Rain Showers
2:00 AM 46.4 °F 40.7 °F 46.4 °F 100% 29.50 in 1.9 mi South 12.7 mph - N/A Rain Light Rain Showers
2:30 AM 44.6 °F 38.8 °F 44.6 °F 100% 29.50 in 1.9 mi South 11.5 mph - N/A Rain Light Rain Showers
3:00 AM 44.6 °F 38.8 °F 44.6 °F 100% 29.50 in 0.3 mi South 11.5 mph - N/A Rain Light Rain Showers
3:30 AM 44.6 °F 40.2 °F 44.6 °F 100% 29.50 in 0.3 mi South 8.1 mph - N/A   Light Drizzle
4:00 AM 44.6 °F 40.7 °F 44.6 °F 100% 29.50 in 0.3 mi South 6.9 mph - N/A   Light Drizzle
4:30 AM 44.6 °F 40.2 °F 44.6 °F 100% 29.50 in 0.3 mi South 8.1 mph - N/A Fog Light Drizzle
5:00 AM 44.6 °F 40.2 °F 44.6 °F 100% 29.50 in 0.2 mi South 8.1 mph - N/A Fog Light Drizzle
5:30 AM 46.4 °F 41.5 °F 46.4 °F 100% 29.50 in 3.1 mi South 10.4 mph - N/A   Overcast
6:00 AM 46.4 °F 41.1 °F 46.4 °F 100% 29.50 in 0.6 mi South 11.5 mph - N/A Fog Fog
6:30 AM 46.4 °F 41.5 °F 46.4 °F 100% 29.50 in 0.4 mi South 10.4 mph - N/A Fog Fog
7:00 AM 49 °F - 49 °F 100% 29.52 in 2 mi SW 13.8 mph - -   Mist
7:00 AM 48.2 °F - 48.2 °F 100% 29.50 in 1.9 mi SSW 12.7 mph - N/A   Mostly Cloudy
7:30 AM 48.2 °F - 48.2 °F 100% 29.53 in 4.3 mi West 10.4 mph - N/A   Mostly Cloudy
8:00 AM 48.2 °F - 48.2 °F 100% 29.53 in 6.2 mi WNW 9.2 mph - N/A   Scattered Clouds
8:30 AM 48.2 °F - 46.4 °F 93% 29.56 in 6.2 mi WNW 8.1 mph - N/A   Scattered Clouds
9:00 AM 48.2 °F - 46.4 °F 93% 29.59 in 6.2 mi West 9.2 mph - N/A   Scattered Clouds
9:30 AM 48.2 °F - 46.4 °F 93% 29.62 in 6.2 mi NW 5.8 mph - N/A   Scattered Clouds
10:00 AM 48.2 °F - 46.4 °F 93% 29.62 in 6.2 mi WNW 6.9 mph - N/A Rain Light Rain Showers
10:30 AM 48.2 °F - 46.4 °F 93% 29.62 in 6.2 mi WNW 6.9 mph - N/A   Scattered Clouds
11:30 AM 50.0 °F - 48.2 °F 94% 29.65 in 6.2 mi West 9.2 mph - N/A   Scattered Clouds
12:00 PM 51.8 °F - 48.2 °F 88% 29.68 in 6.2 mi Variable 6.9 mph 18.4 mph N/A   Scattered Clouds
12:30 PM 50.0 °F - 48.2 °F 94% 29.68 in 6.2 mi WSW 6.9 mph - N/A   Scattered Clouds
1:00 PM 51 °F - 48 °F 84% 29.71 in 9 mi West 8.1 mph - -   Partly Cloudy
1:30 PM 51.8 °F - 48.2 °F 88% 29.71 in 6.2 mi WSW 11.5 mph 23.0 mph N/A   Scattered Clouds
2:00 PM 51.8 °F - 48.2 °F 88% 29.71 in 6.2 mi West 12.7 mph - N/A   Scattered Clouds
2:30 PM 50.0 °F - 44.6 °F 82% 29.74 in 6.2 mi WNW 10.4 mph 24.2 mph N/A   Scattered Clouds
3:00 PM 50.0 °F - 46.4 °F 87% 29.74 in 6.2 mi WNW 9.2 mph - N/A   Scattered Clouds
3:30 PM 50.0 °F - 46.4 °F 87% 29.74 in 6.2 mi West 10.4 mph 23.0 mph N/A   Scattered Clouds
4:00 PM 50.0 °F - 44.6 °F 82% 29.74 in 6.2 mi West 10.4 mph 21.9 mph N/A Rain Light Rain Showers
5:00 PM 50.0 °F - 46.4 °F 87% 29.77 in 6.2 mi West 5.8 mph 17.3 mph N/A   Scattered Clouds
5:30 PM 50.0 °F - 44.6 °F 82% 29.77 in 6.2 mi West 10.4 mph - N/A   Scattered Clouds
6:00 PM 50.0 °F - 44.6 °F 82% 29.77 in 6.2 mi West 6.9 mph - N/A   Scattered Clouds
6:30 PM 50.0 °F - 44.6 °F 82% 29.80 in 6.2 mi West 6.9 mph - N/A   Scattered Clouds
7:00 PM 51 °F - 45 °F 74% 29.81 in 12 mi WSW 11.5 mph - -   Partly Cloudy
7:00 PM 50.0 °F - 44.6 °F 82% 29.80 in 6.2 mi WSW 8.1 mph - N/A   Scattered Clouds
7:30 PM 50.0 °F - 44.6 °F 82% 29.80 in 6.2 mi West 4.6 mph - N/A   Scattered Clouds
8:00 PM 48.2 °F - 42.8 °F 82% 29.80 in 6.2 mi WSW 3.5 mph - N/A   Scattered Clouds
9:00 PM 48.2 °F - 44.6 °F 87% 29.83 in 6.2 mi SSW 3.5 mph - N/A   Partly Cloudy
9:14 PM 48.2 °F - 44.6 °F 87% 29.83 in 2.5 mi Variable 1.2 mph - N/A Rain Light Rain Showers
9:30 PM 46.4 °F 45.2 °F 44.6 °F 93% 29.83 in 6.2 mi Variable 3.5 mph - N/A   Partly Cloudy
10:00 PM 46.4 °F - 44.6 °F 93% 29.83 in 6.2 mi Variable 2.3 mph - N/A   Partly Cloudy
10:30 PM 46.4 °F - 44.6 °F 93% 29.83 in 6.2 mi Variable 2.3 mph - N/A   Scattered Clouds
11:00 PM 46.4 °F 45.2 °F 44.6 °F 93% 29.86 in 6.2 mi South 3.5 mph - N/A   Partly Cloudy
11:30 PM 46.4 °F - 44.6 °F 93% 29.86 in 6.2 mi Variable 2.3 mph - N/A   Partly Cloudy